カタログに戻る

STARLINK-5161

運用中通信VLEO
NORAD 54163·PAYLOAD·🇺🇸 United States

打ち上げ Oct 28, 2022 から Vandenberg Space Force Base

Loading…

次のパス (今後24時間)

TLE

最新Source: CelesTrak SupGP

元期: Sep 15, 2026, 02:25 UTC

1 54163C 22141G   26258.10118056 -.00029303  00000+0 -86601-3 0  2584
2 54163  53.1584 218.9561 0001336  86.9267 330.8107 15.34395533    14

AllMySatでSTARLINK-5161をリアルタイム追跡

Download on the App Store